Weather reports worldwide

Advertisment
Düsseldorf, Germany (10400): temperature & dewpoint: 16.09.2018 23:00:00 - 22.09.2018 23:00:00 (CEST)Düsseldorf, Germany (10400): temperature 5cm & temperature -5cm: 16.09.2018 23:00:00 - 22.09.2018 23:00:00 (CEST)Düsseldorf, Germany (10400): temperature -20cm & temperature -100cm: 16.09.2018 23:00:00 - 22.09.2018 23:00:00 (CEST)Düsseldorf, Germany (10400): wind speed & gusts: 16.09.2018 23:00:00 - 22.09.2018 23:00:00 (CEST)Düsseldorf, Germany (10400): wind direction: 16.09.2018 23:00:00 - 22.09.2018 23:00:00 (CEST)Düsseldorf, Germany (10400): reduced air pressure: 16.09.2018 23:00:00 - 22.09.2018 23:00:00 (CEST)Düsseldorf, Germany (10400): visibility: 16.09.2018 23:00:00 - 22.09.2018 23:00:00 (CEST)Düsseldorf, Germany (10400): sunshine duration: 16.09.2018 23:00:00 - 22.09.2018 23:00:00 (CEST)Düsseldorf, Germany (10400): precipitation: 16.09.2018 23:00:00 - 22.09.2018 23:00:00 (CEST)
Date & Time tt [°C] td [°C] tt 5cm [°C] tt -5cm [°C] tt -20cm [°C] tt -100cm [°C] ff [km/h] ff [kn] fx [km/h] fx [kn] dd ppp [hPa] vv [km] sd [min] rr [mm]
22.09.2018 23:00:00 11,0 9,1 10,3 13,6 16,1 18,7 13 7 21 11 SSW 1019,0 20 0 0,6
22.09.2018 22:00:00 11,1 9,2 10,3 13,8 16,3 18,7 14 7 20 11 SW 1019,4 20 0 0,1
22.09.2018 21:00:00 11,2 9,4 10,4 14,1 16,5 18,7 12 6 21 11 SW 1019,5 20 0 0,1
22.09.2018 20:00:00 11,2 9,1 10,5 14,5 16,8 18,7 13 7 22 12 SW 1019,4 10 0 0,4
22.09.2018 19:00:00 11,5 8,6 10,5 15,0 17,0 18,7 14 7 31 17 SW 1019,4 20 0 0,3
22.09.2018 18:00:00 12,8 9,1 11,8 15,8 17,1 18,7 18 10 37 20 SW 1019,7 10 0 0,1
22.09.2018 17:00:00 13,3 8,1 13,4 16,5 17,2 18,8 23 12 44 24 SW 1019,8 45 0 0,0
22.09.2018 16:00:00 13,8 6,4 13,8 17,4 17,1 18,8 35 19 52 28 SW 1019,9 40 0 0,0
22.09.2018 15:00:00 15,5 7,7 15,9 17,7 17,0 18,8 19 11 37 20 WSW 1019,9 40 1 0,0
22.09.2018 14:00:00 17,4 7,5 19,7 18,6 16,6 18,8 30 16 41 22 SW 1019,6 50 9 0,0
22.09.2018 13:00:00 16,7 7,1 18,4 18,1 16,2 18,8 29 16 42 23 SW 1019,9 10 27 0,0
22.09.2018 12:00:00 15,7 6,7 17,5 17,1 15,8 18,8 28 15 42 23 SW 1020,4 10 50 0,0
22.09.2018 11:00:00 14,3 7,9 16,0 14,9 15,6 18,8 26 14 35 19 SW 1020,9 10 14 0,0
22.09.2018 10:00:00 13,0 7,8 13,4 13,9 15,5 18,8 22 12 35 19 SW 1020,7 10 11 0,0
22.09.2018 09:00:00 12,0 7,5 11,8 13,1 15,6 18,8 26 14 31 17 SW 1020,4 50 4 0,0
22.09.2018 08:00:00 11,1 7,2 10,4 12,8 15,7 18,8 18 10 28 15 SW 1020,3 10 0 0,0
22.09.2018 07:00:00 11,7 7,4 10,9 13,0 15,9 18,8 21 11 28 15 SW 1019,8 10 0 0,0
22.09.2018 06:00:00 11,9 7,4 11,2 12,7 16,0 18,9 17 9 26 14 SW 1019,5 35 0 0,0
22.09.2018 05:00:00 11,3 7,1 9,7 12,9 16,3 18,9 18 10 35 19 SW 1019,1 35 0 0,0
22.09.2018 04:00:00 12,5 7,2 10,8 13,3 16,5 18,9 26 14 35 19 WSW 1018,7 35 0 0,0
22.09.2018 03:00:00 13,2 7,4 12,6 13,7 16,7 18,9 24 13 48 26 W 1018,2 35 0 0,0
22.09.2018 02:00:00 13,0 7,4 11,7 14,0 16,8 18,9 29 16 56 30 WSW 1017,3 10 0 0,0
22.09.2018 01:00:00 13,5 6,5 12,4 13,8 17,1 18,9 31 17 52 28 SW 1016,8 45 0 0,0
22.09.2018 00:00:00 13,6 5,9 12,2 14,1 17,3 18,8 31 17 51 28 SW 1015,9 50 0 0,0
21.09.2018 23:00:00 13,9 4,9 12,5 14,5 17,6 18,8 28 15 46 25 SW 1015,2 10 0 0,0
21.09.2018 22:00:00 14,3 5,1 12,8 14,9 17,9 18,8 26 14 44 24 SW 1014,5 10 0 0,0
21.09.2018 21:00:00 14,8 4,7 13,2 15,2 18,2 18,8 27 15 48 26 WSW 1013,6 55 0 0,0
21.09.2018 20:00:00 14,6 3,5 12,5 15,8 18,5 18,8 21 11 49 27 SW 1012,4 10 15 0,0
21.09.2018 19:00:00 16,2 2,7 15,1 17,2 18,6 18,8 35 19 51 27 WSW 1011,6 60 49 0,0
21.09.2018 18:00:00 16,5 4,5 16,2 17,6 18,7 18,8 24 13 46 25 W 1011,4 10 16 0,0
21.09.2018 17:00:00 16,8 5,7 17,0 18,3 18,7 18,8 40 22 63 34 WSW 1010,8 60 41 0,0
21.09.2018 16:00:00 16,6 5,0 16,8 17,4 18,8 18,8 31 17 59 32 W 1010,1 10 4 0,0
21.09.2018 15:00:00 16,4 8,0 16,5 17,5 18,9 18,8 28 15 48 26 WSW 1009,2 10 0 0,0
21.09.2018 14:00:00 16,8 10,8 17,9 17,7 19,0 18,8 21 12 38 20 WSW 1008,1 25 0 0,0
21.09.2018 13:00:00 15,1 11,7 14,7 17,4 19,2 18,8 24 13 36 20 SW 1007,8 10 0 0,0
21.09.2018 12:00:00 13,7 10,8 13,0 17,3 19,5 18,8 24 13 55 30 WSW 1007,4 10 0 0,3
21.09.2018 11:00:00 14,1 10,2 12,6 19,0 19,6 18,8 50 27 78 42 W 1006,5 10 0 1,3
21.09.2018 10:00:00 21,2 11,5 20,4 19,6 19,6 18,8 38 21 70 38 SW 1003,8 40 0 0,0
21.09.2018 09:00:00 22,2 11,3 21,5 19,5 19,6 18,8 31 17 58 31 SSW 1004,0 50 0 0,0
21.09.2018 08:00:00 22,2 13,1 21,3 19,2 19,6 18,8 31 17 53 28 SSW 1003,8 10 0 0,0
21.09.2018 07:00:00 21,7 12,4 20,6 19,0 19,6 18,7 29 15 44 24 S 1004,0 50 0 0,0
21.09.2018 06:00:00 21,1 11,5 20,0 18,8 19,7 18,7 28 15 37 20 S 1004,6 50 0 0,0
21.09.2018 05:00:00 20,0 11,7 18,8 18,8 19,9 18,7 22 12 35 19 SSE 1005,9 10 0 0,0
21.09.2018 04:00:00 20,2 11,6 18,8 18,9 20,0 18,7 21 11 34 18 SSE 1007,1 10 0 0,0
21.09.2018 03:00:00 20,1 11,5 18,8 19,0 20,2 18,7 18 10 31 17 SSE 1008,1 10 0 0,0
21.09.2018 02:00:00 19,8 11,0 18,0 19,3 20,4 18,7 15 8 24 13 SSE 1008,9 10 0 0,0
21.09.2018 01:00:00 20,3 10,5 19,0 19,6 20,6 18,7 18 10 29 16 SSE 1009,6 10 0 0,0
21.09.2018 00:00:00 21,7 10,4 20,2 19,8 20,9 18,7 21 11 28 15 SSE 1010,3 10 0 0,0
20.09.2018 23:00:00 20,7 9,9 17,8 20,1 21,2 18,7 15 8 24 13 S 1011,3 10 0 0,0
20.09.2018 22:00:00 22,1 9,4 20,1 20,6 21,5 18,7 18 10 24 13 S 1011,8 50 0 0,0
20.09.2018 21:00:00 22,5 10,7 20,2 21,2 21,8 18,7 15 8 21 11 S 1012,0 10 0 0,0
20.09.2018 20:00:00 22,2 11,2 16,2 22,5 22,0 18,7 11 6 18 10 SW 1012,3 10 0 0,0
20.09.2018 19:00:00 24,3 11,5 22,3 24,3 22,1 18,7 15 8 28 15 SW 1012,8 10 10 0,0
20.09.2018 18:00:00 26,1 10,9 26,5 25,6 21,9 18,7 22 12 34 18 SW 1013,6 10 56 0,0
20.09.2018 17:00:00 26,4 11,3 28,0 26,2 21,5 18,7 24 13 39 21 SW 1014,4 10 60 0,0
20.09.2018 16:00:00 25,5 11,3 28,3 26,0 21,0 18,7 24 13 41 22 SW 1015,3 28 60 0,0
20.09.2018 15:00:00 24,5 11,5 26,2 25,7 20,5 18,7 31 17 42 23 SSW 1015,9 10 60 0,0
20.09.2018 14:00:00 24,4 11,8 25,9 24,3 19,9 18,6 31 17 48 26 SW 1016,7 10 57 0,0
20.09.2018 13:00:00 23,8 12,5 25,0 23,2 19,4 18,6 31 17 49 27 SW 1016,9 45 54 0,0
20.09.2018 12:00:00 23,7 12,7 25,9 21,9 18,9 18,6 29 16 41 22 SSW 1017,3 30 53 0,0
20.09.2018 11:00:00 22,2 13,5 24,4 19,9 18,5 18,6 21 11 29 16 SSW 1017,8 25 39 0,0
20.09.2018 10:00:00 20,0 13,1 20,7 18,4 18,4 18,6 18 10 27 14 SSW 1017,9 10 45 0,0
20.09.2018 09:00:00 17,4 12,8 17,3 16,9 18,4 18,6 10 5 23 12 SSE 1017,9 25 26 0,0
20.09.2018 08:00:00 15,8 12,2 14,5 16,5 18,6 18,6 16 9 25 14 SSE 1017,8 10 0 0,0
20.09.2018 07:00:00 15,3 12,0 13,1 16,5 18,8 18,6 15 8 21 11 SSE 1018,0 20 0 0,0
20.09.2018 06:00:00 15,7 12,0 12,4 16,7 19,1 18,6 14 8 22 12 SSE 1017,9 35 0 0,0
20.09.2018 05:00:00 15,6 12,0 13,2 16,9 19,4 18,5 16 9 21 11 SSE 1018,0 35 0 0,0
20.09.2018 04:00:00 14,7 11,2 9,3 17,2 19,7 18,5 8 4 9 5 SSE 1018,1 10 0 0,0
20.09.2018 03:00:00 15,9 11,8 11,7 17,8 20,0 18,5 8 4 16 9 SSE 1017,7 10 0 0,0
20.09.2018 02:00:00 16,9 11,9 13,4 18,3 20,3 18,5 11 6 15 8 S 1018,3 10 0 0,0
20.09.2018 01:00:00 17,2 11,7 12,5 18,7 20,6 18,5 10 6 18 10 S 1018,6 35 0 0,0
20.09.2018 00:00:00 18,4 11,9 14,5 19,2 20,9 18,5 13 7 17 9 SSW 1018,8 10 0 0,0
19.09.2018 23:00:00 18,2 11,6 13,8 19,8 21,3 18,5 11 6 13 7 SSW 1018,4 10 0 0,0
19.09.2018 22:00:00 19,4 11,6 13,0 20,7 21,7 18,5 9 5 15 8 SW 1018,1 10 0 0,0
19.09.2018 21:00:00 22,0 11,6 18,9 21,9 22,0 18,5 9 5 24 13 W 1017,6 10 0 0,0
19.09.2018 20:00:00 24,0 12,3 22,2 23,1 22,1 18,5 15 8 35 19 W 1016,9 10 4 0,0
19.09.2018 19:00:00 26,0 12,8 24,8 24,5 22,2 18,5 26 14 42 23 WSW 1016,2 50 11 0,0
19.09.2018 18:00:00 27,0 12,8 26,9 25,8 22,0 18,4 29 16 48 26 SW 1015,8 50 56 0,0
19.09.2018 17:00:00 27,6 12,7 28,8 26,4 21,6 18,4 29 16 50 27 SW 1015,5 10 60 0,0
19.09.2018 16:00:00 27,7 13,6 29,9 26,4 21,1 18,4 35 19 52 28 SSW 1015,9 10 59 0,0
19.09.2018 15:00:00 28,1 14,7 30,8 25,5 20,5 18,4 29 16 49 27 WSW 1016,2 10 47 0,0
19.09.2018 14:00:00 27,1 14,5 30,2 23,9 20,1 18,4 31 17 46 25 SW 1016,6 10 23 0,0
19.09.2018 13:00:00 25,3 14,8 25,7 23,7 19,5 18,4 28 15 40 22 SW 1016,7 10 30 0,0
19.09.2018 12:00:00 24,1 14,9 27,0 22,4 19,0 18,4 18 10 32 17 S 1017,0 10 60 0,0
19.09.2018 11:00:00 22,7 14,5 24,9 20,3 18,6 18,4 21 11 30 16 S 1017,2 10 48 0,0
19.09.2018 10:00:00 20,8 13,6 21,8 18,4 18,5 18,3 19 10 31 17 SSE 1017,4 35 60 0,0
19.09.2018 09:00:00 17,9 12,7 17,8 17,2 18,5 18,3 22 12 30 16 SSE 1017,0 35 45 0,0
19.09.2018 08:00:00 16,1 12,6 15,0 16,8 18,7 18,3 16 9 22 12 SSE 1017,5 10 0 0,0
19.09.2018 07:00:00 15,8 12,4 13,9 16,7 18,9 18,3 13 7 18 10 SSE 1017,6 35 0 0,0
19.09.2018 06:00:00 15,3 12,4 12,0 16,8 19,2 18,3 10 5 18 10 SSE 1017,6 35 0 0,0
19.09.2018 05:00:00 13,2 11,9 11,6 17,1 19,5 18,3 9 5 9 5 ESE 1017,5 10 0 0,0
19.09.2018 04:00:00 14,3 12,5 12,6 17,6 19,8 18,3 5 3 9 5 E 1017,5 40 0 0,0
19.09.2018 03:00:00 14,8 12,4 12,0 18,0 20,1 18,3 4 2 5 3 E 1017,4 35 0 0,0
19.09.2018 02:00:00 15,1 12,5 11,5 18,6 20,5 18,2 2 1 4 2 - 1017,3 10 0 0,0
19.09.2018 01:00:00 16,9 12,0 13,1 19,1 20,8 18,2 4 2 15 8 - 1016,9 10 0 0,0
19.09.2018 00:00:00 18,7 12,7 16,2 19,6 21,2 18,2 9 5 11 6 WNW 1016,4 10 0 0,0
18.09.2018 23:00:00 18,2 12,5 13,8 20,5 21,6 18,2 4 2 9 5 WSW 1015,9 10 0 0,0
18.09.2018 22:00:00 21,7 12,3 18,3 21,5 22,0 18,2 9 5 12 7 WNW 1015,5 10 0 0,0
18.09.2018 21:00:00 23,4 11,0 18,0 22,7 22,3 18,2 9 5 21 11 W 1014,9 10 0 0,0
18.09.2018 20:00:00 25,7 10,4 23,7 24,1 22,5 18,2 21 11 29 16 W 1013,6 10 21 0,0
18.09.2018 19:00:00 27,8 11,6 26,5 25,8 22,5 18,2 18 10 42 23 WSW 1012,4 10 22 0,0
18.09.2018 18:00:00 29,2 10,8 29,3 27,2 22,3 18,2 31 17 49 27 WSW 1012,2 10 60 0,0
18.09.2018 17:00:00 30,1 9,8 31,3 28,1 21,9 18,2 29 16 42 23 WSW 1011,9 10 60 0,0
18.09.2018 16:00:00 31,1 8,9 33,1 28,2 21,3 18,2 29 16 45 24 SW 1011,5 50 60 0,0
18.09.2018 15:00:00 31,8 10,4 33,9 27,6 20,5 18,2 32 17 41 22 SW 1011,5 50 60 0,0
18.09.2018 14:00:00 30,2 11,7 32,9 26,6 19,7 18,2 25 14 44 24 SW 1011,7 50 59 0,0
18.09.2018 13:00:00 29,7 14,5 32,0 25,0 18,9 18,2 30 16 42 23 SSW 1012,0 50 60 0,0
18.09.2018 12:00:00 27,3 11,7 29,8 22,6 18,3 18,2 21 11 35 19 S 1012,3 10 60 0,0
18.09.2018 11:00:00 24,6 10,8 26,3 20,3 17,9 18,2 25 14 38 21 SSE 1012,3 50 60 0,0
18.09.2018 10:00:00 22,2 10,1 22,9 18,3 17,7 18,2 22 12 42 23 SSE 1012,2 10 60 0,0
18.09.2018 09:00:00 20,0 9,3 19,8 17,1 17,6 18,2 28 15 40 21 SSE 1012,4 10 60 0,0
18.09.2018 08:00:00 18,8 8,9 17,7 16,5 17,7 18,2 30 16 44 24 SSE 1012,4 50 0 0,0
18.09.2018 07:00:00 18,8 8,9 17,3 16,5 17,8 18,2 26 14 39 21 SSE 1012,3 10 0 0,0
18.09.2018 06:00:00 18,7 8,9 17,1 16,6 18,0 18,2 24 13 37 20 SSE 1012,7 10 0 0,0
18.09.2018 05:00:00 18,4 8,9 17,0 16,7 18,1 18,2 24 13 36 19 SSE 1013,1 55 0 0,0
18.09.2018 04:00:00 18,5 9,2 17,0 16,8 18,3 18,1 24 13 35 19 SSE 1013,4 50 0 0,0
18.09.2018 03:00:00 18,4 9,2 16,7 16,9 18,5 18,1 22 12 35 19 SSE 1013,8 50 0 0,0
18.09.2018 02:00:00 18,4 9,0 16,6 17,1 18,7 18,2 21 11 29 16 SSE 1014,2 10 0 0,0
18.09.2018 01:00:00 19,0 8,3 17,1 17,3 19,0 18,2 18 10 30 16 SSE 1014,6 50 0 0,0
18.09.2018 00:00:00 18,2 7,4 15,4 17,5 19,3 18,2 18 10 27 15 SSE 1015,0 10 0 0,0
17.09.2018 23:00:00 19,1 7,7 14,9 17,9 19,7 18,2 13 7 20 11 SSE 1015,3 50 0 0,0
17.09.2018 22:00:00 16,7 9,7 10,8 18,7 20,2 18,2 8 4 13 7 ESE 1015,5 10 0 0,0
17.09.2018 21:00:00 19,1 8,7 13,3 19,9 20,5 18,2 5 3 11 6 ENE 1015,5 10 0 0,0
17.09.2018 20:00:00 20,5 8,4 16,2 21,6 20,8 18,2 8 4 9 5 NE 1015,7 55 27 0,0
17.09.2018 19:00:00 23,7 7,8 21,3 23,6 20,8 18,2 8 4 13 7 E 1015,9 10 17 0,0
17.09.2018 18:00:00 25,7 7,4 27,2 25,1 20,6 18,2 7 4 13 7 ESE 1016,4 50 60 0,0
17.09.2018 17:00:00 25,7 7,8 27,6 25,8 20,1 18,2 8 4 21 11 - 1017,0 10 60 0,0
17.09.2018 16:00:00 25,5 7,5 28,1 26,0 19,5 18,2 13 7 22 12 SSW 1017,7 10 60 0,0
17.09.2018 15:00:00 24,9 7,4 27,9 25,6 18,7 18,2 13 7 23 13 SW 1018,3 10 60 0,0
17.09.2018 14:00:00 23,7 9,5 27,6 24,3 17,8 18,2 13 7 25 14 S 1018,9 50 60 0,0
17.09.2018 13:00:00 22,9 9,3 26,7 22,1 17,1 18,2 11 6 19 10 S 1019,4 10 60 0,0
17.09.2018 12:00:00 21,0 11,0 24,0 19,8 16,4 18,2 11 6 16 9 S 1020,0 10 60 0,0
17.09.2018 11:00:00 19,2 9,8 21,2 17,4 16,0 18,2 8 5 15 8 SSE 1020,3 35 60 0,0
17.09.2018 10:00:00 16,5 9,0 17,8 15,3 15,8 18,2 13 7 18 10 S 1020,6 10 60 0,0
17.09.2018 09:00:00 14,7 8,3 14,6 13,9 15,9 18,2 8 4 22 12 SSE 1020,9 10 43 0,0
17.09.2018 08:00:00 13,2 8,3 11,8 13,3 16,1 18,2 18 10 25 14 SSE 1020,3 10 0 0,0
17.09.2018 07:00:00 12,4 8,2 10,5 13,2 16,3 18,2 16 9 24 13 SSE 1020,0 10 0 0,0
17.09.2018 06:00:00 12,3 8,4 7,2 13,4 16,6 18,2 10 5 14 8 SSE 1020,3 50 0 0,0
17.09.2018 05:00:00 12,7 8,7 8,8 13,6 16,9 18,2 5 3 13 7 SSE 1019,8 50 0 0,0
17.09.2018 04:00:00 9,6 8,7 5,5 14,1 17,2 18,2 2 1 5 3 E 1020,0 50 0 0,0
17.09.2018 03:00:00 11,0 9,5 7,6 14,6 17,5 18,2 4 2 9 5 E 1020,0 50 0 0,0
17.09.2018 02:00:00 9,6 8,4 7,9 15,1 17,9 18,2 5 3 8 4 E 1020,1 10 0 0,0
17.09.2018 01:00:00 11,8 10,4 10,0 15,7 18,3 18,2 3 2 8 4 NNW 1020,0 50 0 0,0
17.09.2018 00:00:00 12,0 10,0 7,7 16,4 18,6 18,2 3 2 11 6 ESE 1020,2 50 0 0,0
16.09.2018 23:00:00 13,7 10,5 10,7 17,3 19,0 18,2 5 3 5 3 ENE 1020,1 55 0 0,0

tt = temperature
td = dewpoint
tt 5cm = temperature 5cm
tt -5cm = temperature -5cm
tt -20cm = temperature -20cm
tt -100cm = temperature -100cm
ff = wind speed
fx = gusts
dd = wind direction
ppp = reduced air pressure
vv = visibility
sd = sunshine duration
rr = precipitation

Next stations